This is the latest recevied weather packets stored in our database for station/object K6TTR. If no packets are shown the sender has not sent any weather packets the latest 10 day(s).
| Time | Temp. | Humidity | Pressure | Rain* | Wind** | Luminosity | Snow |
|---|---|---|---|---|---|---|---|
| 1778022228 | 20.56° C | 36% | 1012.8 hPa | 0 mm | - | 933 W/m² | - |
| 1778021913 | 20.56° C | 36% | 1013 hPa | 0 mm | - | 895 W/m² | - |
| 1778021616 | 20° C | 38% | 1013.2 hPa | 0 mm | - | 851 W/m² | - |
| 1778021321 | 20° C | 38% | 1013.4 hPa | 0 mm | - | 149 W/m² | - |
| 1778021028 | 20° C | 37% | 1013.4 hPa | 0 mm | - | 183 W/m² | - |
| 1778020713 | 20.56° C | 37% | 1013.3 hPa | 0 mm | - | 197 W/m² | - |
| 1778020418 | 20.56° C | 36% | 1013.2 hPa | 0 mm | - | 179 W/m² | - |
| 1778020122 | 20.56° C | 36% | 1013.3 hPa | 0 mm | - | 227 W/m² | - |
| 1778019826 | 20.56° C | 38% | 1013.3 hPa | 0 mm | - | 960 W/m² | - |
| 1778019515 | 20.56° C | 39% | 1013.5 hPa | 0 mm | - | 930 W/m² | - |
| 1778019220 | 20° C | 38% | 1013.5 hPa | 0 mm | - | 243 W/m² | - |
| 1778018926 | 20° C | 39% | 1013.7 hPa | 0 mm | - | 243 W/m² | - |
| 1778018629 | 19.44° C | 37% | 1013.6 hPa | 0 mm | - | 1051 W/m² | - |
| 1778018315 | 20° C | 39% | 1013.7 hPa | 0 mm | - | 160 W/m² | - |
| 1778018019 | 20° C | 37% | 1013.6 hPa | 0 mm | - | 151 W/m² | - |
| 1778017725 | 20° C | 38% | 1013.7 hPa | 0 mm | - | 239 W/m² | - |
| 1778017430 | 20° C | 37% | 1013.6 hPa | 0 mm | - | 394 W/m² | - |
| 1778017113 | 20° C | 37% | 1013.7 hPa | 0 mm | - | 304 W/m² | - |
| 1778016821 | 20° C | 36% | 1013.7 hPa | 0 mm | - | 1137 W/m² | - |
| 1778016528 | 20° C | 37% | 1013.8 hPa | 0 mm | - | 253 W/m² | - |
| 1778016212 | 20° C | 39% | 1013.7 hPa | 0 mm | - | 893 W/m² | - |
| 1778015915 | 20° C | 43% | 1013.6 hPa | 0 mm | - | 893 W/m² | - |
| 1778015620 | 20° C | 40% | 1013.7 hPa | 0 mm | - | 211 W/m² | - |
| 1778015324 | 19.44° C | 39% | 1013.5 hPa | 0 mm | - | 626 W/m² | - |
| 1778015030 | 18.89° C | 44% | 1013.7 hPa | 0 mm | - | 1136 W/m² | - |
* Rain latest hour (hover to see other rain measurements)
** Current wind speed in m/s (hover to see current wind gust speed)